Regional Weather Roundup
Issued by NWS

Home | Current Version | Previous Version | Graphics & Text | Print | Product List | Glossary On
Versions: 1 2 3 4 5 6 7 8 9 10 11 12 13 14 15 16 17 18 19 20 21 22 23 24 25 26 27 28 29 30 31 32 33 34 35 36 37 38 39 40 41 42 43 44 45 46 47 48 49 50
000
ASUS43 KDTX 221101
RWRMI
MICHIGAN HOURLY REGIONAL WEATHER ROUNDUP
NATIONAL WEATHER SERVICE DETROIT/PONTIAC MI
700 AM EDT SUN OCT 22 2017

NOTE: "FAIR" INDICATES FEW OR NO CLOUDS BELOW 12,000 FEET WITH NO
SIGNIFICANT WEATHER AND/OR OBSTRUCTION TO VISIBILITY.

MIZ047>049-052>055-059>063-066>070-074>076-081>083-221200-
SOUTHEAST LOWER MICHIGAN

CITY           SKY/WX    TMP DP  RH WIND       PRES   REMARKS
ADRIAN         CLOUDY    52  46  80 S3        30.15S
ALMA           CLEAR     57  46  65 CALM      30.07F
ANN ARBOR      CLOUDY    42  42 100 CALM      30.14F
BAD AXE        CLEAR     56  47  70 S7        30.13S
CARO           CLEAR     57  45  65 SE3       30.11S
DETROIT CITY   CLEAR     53  52  96 SE6       30.16F
DETROIT        MOCLDY    54  50  86 SE3       30.16F
FLINT          CLOUDY    57  46  66 S8        30.12F
GROSSE ILE     CLEAR     59  55  88 S7        30.16S
HILLSDALE      CLOUDY    54  45  71 SE10      30.11F
HOWELL         PTCLDY    55  47  75 SE6       30.12F

CITY           SKY/WX    TMP DP  RH WIND       PRES   REMARKS
JACKSON        CLOUDY    57  46  66 SE9       30.11F
LAMBERTVILLE   CLOUDY    55  48  76 S5        30.15S
LANSING        CLEAR     59  45  59 SE8       30.09F
LAPEER         FAIR      57  46  67 S6        30.13F
MASON          CLEAR     58  47  67 S9        30.10S
MONROE         PTCLDY    56  49  77 SE5       30.15S
MT. CLEMENS    CLEAR     53  53 100 S3        30.15S
PONTIAC        PTCLDY    53  48  83 SE6       30.14F
PORT HOPE        N/A     57  48  72 S6        30.10F
PORT HURON     CLEAR     50  48  93 S3        30.17F FOG
TRI CITIES     CLEAR     59  49  69 S12       30.09S
MIDLAND        FAIR      59  47  63 S6        30.07S
TROY           CLEAR     52  49  90 CALM      30.17F
SAGINAW HB     CLEAR     59  46  63 SE8       30.09S
$$
MIZ043>046-050>051-056>058-064>065-071>073-077>080-221200-
SOUTHWEST LOWER MICHIGAN

CITY           SKY/WX    TMP DP  RH WIND       PRES   REMARKS
BATTLE CREEK   CLEAR     60  47  61 S12       30.07S
BENTON HARBOR  CLOUDY    63  49  60 SE9       30.01R
BIG RAPIDS     CLEAR     55  47  73 SE6       30.02F
COLDWATER      CLEAR     58  45  61 S8        30.09S
FREMONT        MOCLDY    62  51  67 S6        30.00S
HOLLAND        CLOUDY    63  51  65 S9        30.02S
GRAND RAPIDS   MOCLDY    62  50  64 S10       30.04S
IONIA          FAIR      58  47  65 S8        30.06S
KALAMAZOO      CLEAR     61  46  57 S7        30.06F
LUDINGTON      PTCLDY    65  53  65 S9        29.95S
MARSHALL       CLEAR     57  46  66 SE7       30.08S
MOUNT PLEASANT CLEAR     60  46  61 S6        30.05F
MUSKEGON       CLOUDY    67  53  61 SE13      30.00R
SOUTH HAVEN    CLOUDY    64  49  60 S7        30.02R
$$
MIZ016>042-221200-
NORTHERN LOWER MICHIGAN

CITY           SKY/WX    TMP DP  RH WIND       PRES   REMARKS
ALPENA         CLEAR     58  51  78 S9        30.05F
BEAVER ISLAND  CLEAR     63  54  72 S9        29.93F
BELLAIRE       PTCLDY    63  49  61 S10G18    29.97F
CADILLAC       CLEAR     62  49  61 S8        30.01R
CHARLEVOIX     CLEAR     63  51  66 S8        29.98F
FRANKFORT      MOCLDY    66  53  62 S12       29.94S
GAYLORD        CLEAR     57  48  72 S10       30.01S
GRAYLING       CLEAR     56  47  72 SE6       30.04S
HARBOR SPRINGS MOCLDY    62  50  64 CALM      29.97S
HOUGHTON LAKE  CLEAR     56  46  69 S7        30.05F
MANISTEE       PTCLDY    62  53  72 SE7       29.96S
OSCODA         CLEAR     61  49  66 S12       30.07F
PELLSTON       CLEAR     63  52  67 S6        29.97F
ROGERS CITY    CLEAR     59  50  71 S6        30.03S
TRAVERSE CITY  PTCLDY    64  50  60 VRB3      29.95F
$$
MIZ007>008-015-221200-
EASTERN UPPER MICHIGAN

CITY           SKY/WX    TMP DP  RH WIND       PRES   REMARKS
KINROSS        PTCLDY    56  50  80 SE12      29.97F
MACKINAC ISLAN CLOUDY    63  48  59 S9        29.97S
NEWBERRY       CLOUDY    61  56  85 S13       29.91F
S. S. MARIE    PTCLDY    59  51  75 SE8       29.97F
MUNISING         N/A     63  58  83 S13G23    29.82F
$$
MIZ004>006-011>014-085-221200-
CENTRAL UPPER MICHIGAN

CITY           SKY/WX    TMP DP  RH WIND       PRES   REMARKS
MANISTIQUE     CLOUDY    61  55  82 S13G20    29.89S
ESCANABA       CLEAR     60  56  86 S13       29.85F
MENOMINEE      MOCLDY    61  56  83 SE8       29.85S
SAWYER-GWINN   CLEAR     57  55  94 S13       29.82F
$$
MIZ001>003-009>011-084-221200-
WESTERN UPPER MICHIGAN

CITY           SKY/WX    TMP DP  RH WIND       PRES   REMARKS
IRON MOUNTAIN  CLEAR     62  55  77 S10       29.80F
HOUGHTON       CLOUDY    63  55  75 W18       29.75R
COPPER HARBOR    N/A     63  56  78 SW10G17   29.72R
IRONWOOD       CLOUDY    52  49  89 SW13      29.81R
$$

ABBREVIATIONS USED IN REMARKS
   TC - TEMPERATURE IN CELSIUS
  WCI - WIND CHILL INDEX
   HX - HEAT INDEX
  VSB - VISIBILITY





USA.gov is the U.S. government's official web portal to all federal, state and local government web resources and services.